DECAYED

STARLINK-35644, 66402 (Decayed)

Orbit data source: Space-Track

STARLINK-35644, 66402 was a payload satellite owned by SpaceX/Seattle (US) in LEO that was launched on Sat, 08 Nov 2025 UTC via an FALCON 9 launch vehicle from the Air Force Eastern Test Range (AFETR). Payload-class satellites include a variety of spacecraft equipped with specific instruments for various scientific and technological missions. These include communications satellites like Starlink; space stations such as the ISS; scientific satellites like the Hubble; Earth observation satellites from companies like Planet Labs, Umbra, and HawkEye 360; GPS; miniature CubeSats for education and research; and military/defense satellites.

Not visible in the next 10 days
Identifier
66402, 2025-257Y
Orbit
Decayed
Country
Flag of USUS
Related business
Manufacturer
SpaceX/Seattle
Mission
Decayed Commercial Communications
Bus & Motor
STARLINK V2MO, Unknown motor
Mass
575 kg wet, ~530 kg dry
Launch date (UTC)
2025-11-08 (7 months ago)
Launch vehicle
FALCON 9
Launch site
Air Force Eastern Test Range (AFETR)
Object type
Payload
Rocket body
Debris
Shape & HBR
Box + 2 Pan, 17.7 m
Radar Cross Section
36.964 m², Large (>1 m²)

Expand to show TLE details & history
Last TLE update: 2 months ago

TLE from 2 months ago
0 STARLINK-35644
1 66402U 25257Y   26100.37537795  .19584769  12145-4  27958-2 0  9993
2 66402  53.1529  64.8356 0003399 220.0524 140.0271 16.34052484 24644
Epoch: 2026-04-10T09:00Z
TLE epoch observation values (Epoch: 2026-04-10T09:00:32.654Z)
Latitude
-0.00006°
Longitude
91.08956°
Altitude
184.32 km
Speed
7.796 km/s
True Right ascension
04h 19m 20s
True Declination
0° 00' 00"
Sunlit
Object was in daylight at epoch
Visualization orbit readout
Latitude
Unknown
Longitude
Unknown
Altitude
Unknown
Speed
Unknown
Apparent Right ascension
Unknown
Apparent Declination
Unknown
Sunlit
N/A
Visualization observer readout
Local Sidereal Time
07:16:53
Azimuth
Unknown
Elevation
Unknown
Doppler factor
Unknown
Orbital elements
Apogee altitude
184.17 km
Perigee altitude
179.711 km
Semi-major axis
6,560.077 km
Eccentricity
0.00034
Inclination
53.1529°
RAAN
64.8356°
Arg. of periapsis
220.0524°
True anomaly
140.05211°
Mean anomaly
140.0271°
Eccentric anomaly
140.03961°
Mean motion
4.08488 °/min
Orbital period
88.13 mins
BSTAR
0.0027958
Loading maneuver chart data...
Computing Atmospheric mass density...
Loading historical data...
Loading historical data...
Loading historical data...
Loading historical data...
Loading historical data...
Loading historical data...
Loading historical data...

Documentation

Showing up to 5 results
|